Regional Weather Roundup
Issued by NWS

Home | Current Version | Previous Version | Text Only | Print | Product List | Glossary Off
Versions: 1 2 3 4 5 6 7 8 9 10 11 12 13 14 15 16 17 18 19 20 21 22 23 24 25 26 27 28 29 30 31 32 33 34 35 36 37 38 39 40 41 42 43 44 45 46 47 48 49

000
ASUS45 KBOI 070210
RWRID

IDAHO REGIONAL WEATHER ROUNDUP
NATIONAL WEATHER SERVICE BOISE ID
800 PM MDT MON JUL 06 2015

NOTE: "FAIR" INDICATES FEW OR NO CLOUDS BELOW 12000 FEET
WITH NO SIGNIFICANT WEATHER AND/OR OBSTRUCTIONS TO VISIBILITY

IDZ012-014-070300-
SOUTHWEST IDAHO


CITY           SKY/WX    TMP DP  RH WIND       PRES   REMARKS
BOISE          MOSUNNY   89  49  25 W10       29.93F
CALDWELL       MOSUNNY   91  48  22 SW7       29.92S
MOUNTAIN HOME  PTSUNNY   91  43  19 NW13      29.95S
$$

IDZ016-017-070300-
SOUTHCENTRAL IDAHO


CITY           SKY/WX    TMP DP  RH WIND       PRES   REMARKS
BURLEY         SUNNY     81  53  37 S6        30.02F
JEROME         MOSUNNY   78  55  44 NW6       30.03F
TWIN FALLS     MOSUNNY   83  52  34 NW9       30.02S
$$

IDZ019>023-070300-
SOUTHEAST IDAHO


CITY           SKY/WX    TMP DP  RH WIND       PRES   REMARKS
IDAHO FALLS    MOSUNNY   76  52  43 S6        30.08S
POCATELLO      MOSUNNY   80  48  32 E3        30.07S
REXBURG        MOSUNNY   74  54  49 W5        30.09R
$$

IDZ006-010-011-018-031-032-070300-
CENTRAL IDAHO MOUNTAINS


CITY           SKY/WX    TMP DP  RH WIND       PRES   REMARKS
MCCALL         SUNNY     81  37  20 W7        30.08S
HAILEY         PTSUNNY   72  54  53 S8        30.14S
STANLEY          N/A     62  52  69 S5        30.22S
SALMON         MOSUNNY   82  39  21 N9        29.98R
CHALLIS        PTSUNNY   70  52  52 S15G22    30.11S
$$

IDZ002-004-006-007-026-070300-
NORTHERN IDAHO


CITY           SKY/WX    TMP DP  RH WIND       PRES   REMARKS
LEWISTON       SUNNY     97  40  14 NE8       29.85F HX  92
LOWELL           N/A     83  51  33 CALM      29.87F
COEUR D`ALENE  SUNNY     88  43  20 NE8       29.93F
MULLAN PASS    SUNNY     70  39  32 VRB6      30.20S
$$



USA.gov is the U.S. government's official web portal to all federal, state and local government web resources and services.